| time (UTC) | temp C | wind direction | speed KPH | gust KPH | rain 1hr cm | rain 24hr cm | rain mn cm | humidity % | barometer mb |
| 20260510145044 | 5 | 50 | 9.7 | 19.3 | 0.00 | 0.00 | 0.00 | 40 | 994.6 |
| 20260510144600 | 4 | 59 | 9.7 | 19.3 | 0.00 | 0.00 | 0.00 | 42 | 994.6 |
| 20260510144042 | 4 | 322 | 11.3 | 17.7 | 0.00 | 0.00 | 0.00 | 41 | 994.7 |
| 20260510143540 | 4 | 355 | 8.0 | 19.3 | 0.00 | 0.00 | 0.00 | 42 | 994.6 |
| 20260510143053 | 4 | 355 | 11.3 | 19.3 | 0.00 | 0.00 | 0.00 | 47 | 994.7 |
| 20260510142538 | 4 | 331 | 8.0 | 16.1 | 0.00 | 0.00 | 0.00 | 45 | 994.7 |
| 20260510142039 | 4 | 334 | 8.0 | 16.1 | 0.00 | 0.00 | 0.00 | 47 | 994.6 |
| 20260510141537 | 3 | 360 | 8.0 | 16.1 | 0.00 | 0.00 | 0.00 | 46 | 994.6 |
| 20260510141036 | 3 | 294 | 8.0 | 17.7 | 0.00 | 0.00 | 0.00 | 48 | 994.5 |
| 20260510140534 | 3 | 355 | 9.7 | 17.7 | 0.00 | 0.00 | 0.00 | 46 | 994.5 |
| 20260510140033 | 3 | 38 | 6.4 | 14.5 | 0.00 | 0.00 | 0.00 | 47 | 994.5 |
| 20260510135532 | 3 | 343 | 6.4 | 12.9 | 0.00 | 0.00 | 0.00 | 49 | 994.5 |
| 20260510135031 | 2 | 340 | 8.0 | 12.9 | 0.00 | 0.00 | 0.00 | 48 | 994.5 |
| 20260510134533 | 2 | 342 | 8.0 | 12.9 | 0.00 | 0.00 | 0.00 | 49 | 994.5 |
| 20260510134030 | 2 | 309 | 4.8 | 16.1 | 0.00 | 0.00 | 0.00 | 46 | 994.5 |
| 20260510133529 | 2 | 348 | 8.0 | 16.1 | 0.00 | 0.00 | 0.00 | 45 | 994.3 |
| 20260510133029 | 2 | 317 | 8.0 | 14.5 | 0.00 | 0.00 | 0.00 | 46 | 994.4 |
| 20260510132530 | 2 | 304 | 8.0 | 16.1 | 0.00 | 0.00 | 0.00 | 46 | 994.2 |
| 20260510132028 | 2 | 317 | 8.0 | 19.3 | 0.00 | 0.00 | 0.00 | 46 | 994.2 |
| 20260510131540 | 2 | 341 | 9.7 | 16.1 | 0.00 | 0.00 | 0.00 | 47 | 994.0 |
| 20260510131029 | 2 | 305 | 9.7 | 16.1 | 0.00 | 0.00 | 0.00 | 49 | 994.1 |
| 20260510130525 | 2 | 342 | 9.7 | 16.1 | 0.00 | 0.00 | 0.00 | 49 | 994.0 |
| 20260510130024 | 1 | 303 | 9.7 | 16.1 | 0.00 | 0.00 | 0.00 | 50 | 993.9 |
| 20260510125522 | 1 | 322 | 8.0 | 12.9 | 0.00 | 0.00 | 0.00 | 51 | 993.8 |
| 20260510125023 | 1 | 343 | 8.0 | 12.9 | 0.00 | 0.00 | 0.00 | 52 | 993.8 |
| 20260510124523 | 1 | 311 | 8.0 | 14.5 | 0.00 | 0.00 | 0.00 | 52 | 993.7 |
| 20260510124022 | 0 | 302 | 8.0 | 14.5 | 0.00 | 0.00 | 0.00 | 53 | 993.8 |
| 20260510123522 | 0 | 327 | 9.7 | 16.1 | 0.00 | 0.00 | 0.00 | 53 | 993.7 |
| 20260510123022 | 0 | 306 | 6.4 | 14.5 | 0.00 | 0.00 | 0.00 | 54 | 993.6 |
| 20260510122520 | 0 | 300 | 6.4 | 11.3 | 0.00 | 0.00 | 0.00 | 55 | 993.5 |
| 20260510122020 | 0 | 309 | 6.4 | 11.3 | 0.00 | 0.00 | 0.00 | 55 | 993.5 |
| 20260510121520 | 0 | 314 | 4.8 | 8.0 | 0.00 | 0.00 | 0.00 | 56 | 993.5 |
| 20260510121020 | 0 | 276 | 3.2 | 8.0 | 0.00 | 0.00 | 0.00 | 56 | 993.3 |
| 20260510120518 | 0 | 291 | 3.2 | 8.0 | 0.00 | 0.00 | 0.00 | 56 | 993.4 |
| 20260510120019 | 0 | 286 | 4.8 | 8.0 | 0.00 | 0.00 | 0.00 | 56 | 993.3 |
| 20260510115517 | -1 | 294 | 3.2 | 8.0 | 0.00 | 0.00 | 0.00 | 57 | 993.2 |
| 20260510115017 | -1 | 299 | 4.8 | 8.0 | 0.00 | 0.00 | 0.00 | 57 | 993.0 |
| 20260510114516 | -1 | 278 | 4.8 | 9.7 | 0.00 | 0.00 | 0.00 | 57 | 993.1 |
| 20260510114019 | -1 | 278 | 3.2 | 11.3 | 0.00 | 0.00 | 0.00 | 57 | 993.0 |
| 20260510113515 | -1 | 290 | 6.4 | 11.3 | 0.00 | 0.00 | 0.00 | 57 | 992.9 |
| 20260510113019 | -1 | 296 | 6.4 | 9.7 | 0.00 | 0.00 | 0.00 | 57 | 992.8 |
| 20260510112516 | -1 | 289 | 4.8 | 12.9 | 0.00 | 0.00 | 0.00 | 57 | 992.7 |
| 20260510112014 | -1 | 285 | 6.4 | 12.9 | 0.00 | 0.00 | 0.00 | 57 | 992.7 |
| 20260510111513 | -1 | 278 | 4.8 | 8.0 | 0.00 | 0.00 | 0.00 | 57 | 992.7 |
| 20260510111013 | -1 | 286 | 3.2 | 8.0 | 0.00 | 0.00 | 0.00 | 57 | 992.6 |
| 20260510110510 | -1 | 290 | 4.8 | 8.0 | 0.00 | 0.00 | 0.00 | 57 | 992.4 |
| 20260510110010 | -1 | 292 | 3.2 | 8.0 | 0.00 | 0.00 | 0.00 | 57 | 992.4 |
| 20260510105509 | -1 | 299 | 4.8 | 8.0 | 0.00 | 0.00 | 0.00 | 56 | 992.4 |
| 20260510105014 | -1 | 291 | 3.2 | 8.0 | 0.00 | 0.00 | 0.00 | 56 | 992.3 |
| 20260510104507 | -1 | 318 | 4.8 | 9.7 | 0.00 | 0.00 | 0.00 | 56 | 992.3 |
| 20260510104007 | -1 | 302 | 4.8 | 9.7 | 0.00 | 0.00 | 0.00 | 56 | 992.3 |
| 20260510103507 | -1 | 288 | 3.2 | 8.0 | 0.00 | 0.00 | 0.00 | 56 | 992.2 |
| 20260510103007 | -1 | 285 | 4.8 | 8.0 | 0.00 | 0.00 | 0.00 | 57 | 992.2 |
| 20260510102506 | -1 | 288 | 3.2 | 4.8 | 0.00 | 0.00 | 0.00 | 57 | 992.1 |
| 20260510102008 | -1 | 286 | 3.2 | 6.4 | 0.00 | 0.00 | 0.00 | 56 | 992.1 |
| 20260510101504 | -1 | 292 | 3.2 | 6.4 | 0.00 | 0.00 | 0.00 | 56 | 992.0 |
| 20260510101004 | -1 | 286 | 3.2 | 6.4 | 0.00 | 0.00 | 0.00 | 56 | 992.0 |
| 20260510100503 | -1 | 284 | 1.6 | 6.4 | 0.00 | 0.00 | 0.00 | 56 | 991.9 |
| 20260510100003 | -1 | 286 | 3.2 | 6.4 | 0.00 | 0.00 | 0.00 | 57 | 991.8 |
| 20260510095503 | -1 | 275 | 3.2 | 6.4 | 0.00 | 0.00 | 0.00 | 57 | 991.8 |
| 20260510095004 | -1 | 291 | 3.2 | 6.4 | 0.00 | 0.00 | 0.00 | 57 | 991.8 |
| 20260510094602 | -1 | 291 | 3.2 | 4.8 | 0.00 | 0.00 | 0.00 | 57 | 991.7 |
| 20260510094103 | -1 | 293 | 3.2 | 6.4 | 0.00 | 0.00 | 0.00 | 57 | 991.7 |
| 20260510093559 | -1 | 290 | 3.2 | 6.4 | 0.00 | 0.00 | 0.00 | 57 | 991.6 |
| 20260510093059 | -1 | 294 | 3.2 | 8.0 | 0.00 | 0.00 | 0.00 | 57 | 991.6 |
| 20260510092601 | 0 | 290 | 4.8 | 8.0 | 0.00 | 0.00 | 0.00 | 58 | 991.5 |
| 20260510092058 | -1 | 290 | 4.8 | 9.7 | 0.00 | 0.00 | 0.00 | 58 | 991.4 |
| 20260510091559 | -1 | 298 | 3.2 | 6.4 | 0.00 | 0.00 | 0.00 | 58 | 991.4 |
| 20260510091055 | 0 | 300 | 3.2 | 6.4 | 0.00 | 0.00 | 0.00 | 58 | 991.3 |
| 20260510090555 | 0 | 300 | 3.2 | 8.0 | 0.00 | 0.00 | 0.00 | 58 | 991.4 |
| 20260510090054 | 0 | 292 | 1.6 | 6.4 | 0.00 | 0.00 | 0.00 | 58 | 991.3 |
| 20260510085556 | 0 | 289 | 3.2 | 6.4 | 0.00 | 0.00 | 0.00 | 59 | 991.2 |
| 20260510085052 | 0 | 297 | 3.2 | 8.0 | 0.00 | 0.00 | 0.00 | 58 | 991.2 |
| 20260510084551 | 0 | 298 | 4.8 | 11.3 | 0.00 | 0.00 | 0.00 | 58 | 991.3 |
| 20260510084051 | 0 | 290 | 4.8 | 11.3 | 0.00 | 0.00 | 0.00 | 58 | 991.2 |
| 20260510083549 | 0 | 292 | 3.2 | 6.4 | 0.00 | 0.00 | 0.00 | 57 | 991.1 |
| 20260510083048 | 0 | 296 | 4.8 | 11.3 | 0.00 | 0.00 | 0.00 | 57 | 991.0 |
| 20260510082548 | 0 | 295 | 4.8 | 11.3 | 0.00 | 0.00 | 0.00 | 57 | 991.1 |
| 20260510082048 | 0 | 290 | 4.8 | 8.0 | 0.00 | 0.00 | 0.00 | 57 | 991.0 |
| 20260510081546 | 0 | 298 | 3.2 | 6.4 | 0.00 | 0.00 | 0.00 | 57 | 990.9 |
| 20260510081046 | 0 | 307 | 1.6 | 4.8 | 0.00 | 0.00 | 0.00 | 57 | 990.9 |
| 20260510080544 | 0 | 307 | 1.6 | 6.4 | 0.00 | 0.00 | 0.00 | 57 | 990.9 |
| 20260510080053 | 0 | 307 | 1.6 | 6.4 | 0.00 | 0.00 | 0.00 | 57 | 991.0 |
| 20260510075546 | 0 | 300 | 1.6 | 6.4 | 0.00 | 0.00 | 0.00 | 57 | 990.8 |
| 20260510075042 | 0 | 317 | 3.2 | 8.0 | 0.00 | 0.00 | 0.00 | 57 | 990.8 |
| 20260510074548 | 0 | 309 | 4.8 | 12.9 | 0.00 | 0.00 | 0.00 | 57 | 990.7 |
| 20260510074041 | 0 | 300 | 6.4 | 12.9 | 0.00 | 0.00 | 0.00 | 57 | 990.7 |
| 20260510073540 | 0 | 317 | 4.8 | 8.0 | 0.00 | 0.00 | 0.00 | 56 | 990.7 |
| 20260510073054 | 1 | 307 | 4.8 | 6.4 | 0.00 | 0.00 | 0.00 | 56 | 990.7 |
| 20260510072539 | 1 | 309 | 4.8 | 8.0 | 0.00 | 0.00 | 0.00 | 56 | 990.8 |
| 20260510072038 | 1 | 317 | 4.8 | 9.7 | 0.00 | 0.00 | 0.00 | 55 | 990.7 |
| 20260510071538 | 1 | 302 | 4.8 | 9.7 | 0.00 | 0.00 | 0.00 | 55 | 990.7 |
| 20260510071036 | 1 | 319 | 4.8 | 8.0 | 0.00 | 0.00 | 0.00 | 54 | 990.6 |
| 20260510070535 | 1 | 320 | 4.8 | 8.0 | 0.00 | 0.00 | 0.00 | 54 | 990.6 |
| 20260510070034 | 1 | 317 | 3.2 | 12.9 | 0.00 | 0.00 | 0.00 | 53 | 990.5 |
| 20260510065533 | 1 | 332 | 4.8 | 12.9 | 0.00 | 0.00 | 0.00 | 53 | 990.5 |
| 20260510065032 | 1 | 321 | 6.4 | 9.7 | 0.00 | 0.00 | 0.00 | 53 | 990.3 |
| 20260510064545 | 1 | 326 | 4.8 | 9.7 | 0.00 | 0.00 | 0.00 | 53 | 990.4 |
| 20260510064031 | 1 | 337 | 4.8 | 9.7 | 0.00 | 0.00 | 0.00 | 53 | 990.3 |
| 20260510063531 | 1 | 331 | 6.4 | 9.7 | 0.00 | 0.00 | 0.00 | 53 | 990.3 |
| 20260510063030 | 1 | 306 | 3.2 | 9.7 | 0.00 | 0.00 | 0.00 | 53 | 990.3 |
| 20260510062531 | 1 | 322 | 6.4 | 9.7 | 0.00 | 0.00 | 0.00 | 53 | 990.4 |
| 20260510062030 | 1 | 347 | 4.8 | 14.5 | 0.00 | 0.00 | 0.00 | 52 | 990.3 |
| 20260510061532 | 1 | 340 | 6.4 | 12.9 | 0.00 | 0.00 | 0.00 | 52 | 990.2 |
| 20260510061027 | 1 | 298 | 6.4 | 12.9 | 0.00 | 0.00 | 0.00 | 51 | 990.1 |
| 20260510060527 | 2 | 319 | 6.4 | 12.9 | 0.00 | 0.00 | 0.00 | 51 | 990.1 |
| 20260510060025 | 2 | 309 | 6.4 | 12.9 | 0.00 | 0.00 | 0.00 | 51 | 990.0 |
| 20260510055523 | 2 | 326 | 6.4 | 9.7 | 0.00 | 0.00 | 0.00 | 50 | 990.0 |
| 20260510055025 | 2 | 335 | 4.8 | 9.7 | 0.00 | 0.00 | 0.00 | 49 | 989.9 |
| 20260510054525 | 2 | 350 | 6.4 | 12.9 | 0.00 | 0.00 | 0.00 | 49 | 989.8 |
| 20260510054020 | 2 | 355 | 6.4 | 14.5 | 0.00 | 0.00 | 0.00 | 49 | 989.7 |
| 20260510053522 | 3 | 5 | 4.8 | 14.5 | 0.00 | 0.00 | 0.00 | 49 | 989.5 |
| 20260510053036 | 3 | 14 | 4.8 | 12.9 | 0.00 | 0.00 | 0.00 | 48 | 989.4 |
| 20260510052518 | 3 | 22 | 4.8 | 17.7 | 0.00 | 0.00 | 0.00 | 49 | 989.5 |
| 20260510052018 | 3 | 355 | 9.7 | 17.7 | 0.00 | 0.00 | 0.00 | 49 | 989.5 |
| 20260510051518 | 3 | 350 | 6.4 | 17.7 | 0.00 | 0.00 | 0.00 | 50 | 989.6 |
| 20260510051021 | 3 | 360 | 9.7 | 17.7 | 0.00 | 0.00 | 0.00 | 51 | 989.4 |
| 20260510050515 | 3 | 360 | 6.4 | 14.5 | 0.00 | 0.00 | 0.00 | 52 | 989.4 |
| 20260510050015 | 3 | 347 | 4.8 | 11.3 | 0.00 | 0.00 | 0.00 | 52 | 989.3 |
| 20260510045513 | 3 | 22 | 4.8 | 14.5 | 0.00 | 0.00 | 0.00 | 53 | 989.3 |
| 20260510045013 | 3 | 351 | 6.4 | 14.5 | 0.00 | 0.00 | 0.00 | 54 | 989.3 |
| 20260510044512 | 3 | 36 | 3.2 | 12.9 | 0.00 | 0.00 | 0.00 | 54 | 989.2 |
| 20260510044011 | 3 | 342 | 3.2 | 12.9 | 0.00 | 0.00 | 0.00 | 55 | 989.2 |
| 20260510043513 | 3 | 324 | 4.8 | 9.7 | 0.00 | 0.00 | 0.00 | 56 | 989.1 |
| 20260510043011 | 2 | 5 | 3.2 | 8.0 | 0.00 | 0.00 | 0.00 | 56 | 989.0 |
| 20260510042512 | 3 | 24 | 1.6 | 8.0 | 0.00 | 0.00 | 0.00 | 56 | 989.0 |
| 20260510042009 | 3 | 40 | 3.2 | 9.7 | 0.00 | 0.00 | 0.00 | 56 | 988.9 |
| 20260510041509 | 2 | 28 | 3.2 | 9.7 | 0.00 | 0.00 | 0.00 | 56 | 988.8 |
| 20260510041012 | 2 | 32 | 4.8 | 9.7 | 0.00 | 0.00 | 0.00 | 57 | 988.7 |
| 20260510040509 | 2 | 22 | 4.8 | 9.7 | 0.00 | 0.00 | 0.00 | 57 | 988.6 |
| 20260510040009 | 2 | 26 | 3.2 | 9.7 | 0.00 | 0.00 | 0.00 | 57 | 988.6 |
| 20260510035507 | 2 | 10 | 1.6 | 4.8 | 0.00 | 0.00 | 0.00 | 57 | 988.7 |
| 20260510035010 | 2 | 11 | 0.0 | 4.8 | 0.00 | 0.00 | 0.00 | 56 | 988.5 |
| 20260510034506 | 3 | 11 | 1.6 | 6.4 | 0.00 | 0.00 | 0.00 | 56 | 988.5 |
| 20260510034005 | 3 | 25 | 1.6 | 6.4 | 0.00 | 0.00 | 0.00 | 56 | 988.3 |
| 20260510033504 | 3 | 36 | 1.6 | 4.8 | 0.00 | 0.00 | 0.00 | 56 | 988.2 |
| 20260510033005 | 3 | 28 | 3.2 | 8.0 | 0.00 | 0.00 | 0.00 | 56 | 988.1 |
| 20260510032503 | 3 | 43 | 3.2 | 8.0 | 0.00 | 0.00 | 0.00 | 56 | 988.1 |
| 20260510032006 | 3 | 29 | 3.2 | 6.4 | 0.00 | 0.00 | 0.00 | 55 | 988.0 |
| 20260510031503 | 3 | 32 | 1.6 | 6.4 | 0.00 | 0.00 | 0.00 | 55 | 987.9 |
| 20260510031002 | 3 | 20 | 1.6 | 4.8 | 0.00 | 0.00 | 0.00 | 54 | 987.9 |
| 20260510030501 | 3 | 20 | 1.6 | 4.8 | 0.00 | 0.00 | 0.00 | 54 | 987.8 |
| 20260510030002 | 3 | 20 | 0.0 | 4.8 | 0.00 | 0.00 | 0.00 | 54 | 987.7 |
| 20260510025600 | 3 | 20 | 1.6 | 4.8 | 0.00 | 0.00 | 0.00 | 54 | 987.6 |
| 20260510025059 | 3 | 12 | 1.6 | 4.8 | 0.00 | 0.00 | 0.00 | 54 | 987.4 |
| 20260510024600 | 3 | 351 | 3.2 | 6.4 | 0.00 | 0.00 | 0.00 | 53 | 987.3 |
| 20260510024058 | 4 | 346 | 3.2 | 6.4 | 0.00 | 0.00 | 0.00 | 51 | 987.2 |
| 20260510023556 | 4 | 348 | 3.2 | 8.0 | 0.00 | 0.00 | 0.00 | 50 | 987.0 |
| 20260510023055 | 5 | 342 | 3.2 | 12.9 | 0.00 | 0.00 | 0.00 | 50 | 986.9 |
| 20260510022558 | 5 | 319 | 4.8 | 12.9 | 0.00 | 0.00 | 0.00 | 50 | 986.8 |
| 20260510022053 | 5 | 325 | 6.4 | 9.7 | 0.00 | 0.00 | 0.00 | 50 | 986.8 |
| 20260510021602 | 5 | 341 | 4.8 | 12.9 | 0.00 | 0.00 | 0.00 | 49 | 986.5 |
| 20260510021052 | 6 | 331 | 8.0 | 14.5 | 0.00 | 0.00 | 0.00 | 48 | 986.6 |
| 20260510020552 | 6 | 343 | 6.4 | 16.1 | 0.00 | 0.00 | 0.00 | 47 | 986.4 |
| 20260510020052 | 6 | 343 | 9.7 | 19.3 | 0.00 | 0.00 | 0.00 | 47 | 986.4 |
| 20260510015550 | 6 | 323 | 8.0 | 20.9 | 0.00 | 0.00 | 0.00 | 47 | 986.4 |
| 20260510015049 | 6 | 314 | 14.5 | 20.9 | 0.00 | 0.00 | 0.00 | 46 | 986.2 |
| 20260510014553 | 6 | 321 | 14.5 | 20.9 | 0.00 | 0.00 | 0.00 | 46 | 986.2 |
| 20260510014049 | 6 | 323 | 12.9 | 24.1 | 0.00 | 0.00 | 0.00 | 45 | 986.0 |
| 20260510013552 | 7 | 338 | 16.1 | 24.1 | 0.00 | 0.00 | 0.00 | 45 | 985.9 |
| 20260510013053 | 7 | 335 | 11.3 | 22.5 | 0.00 | 0.00 | 0.00 | 45 | 985.9 |
| 20260510012548 | 7 | 322 | 12.9 | 25.7 | 0.00 | 0.00 | 0.00 | 45 | 985.9 |
| 20260510012046 | 7 | 346 | 17.7 | 25.7 | 0.00 | 0.00 | 0.00 | 45 | 985.7 |
| 20260510011546 | 7 | 342 | 11.3 | 20.9 | 0.00 | 0.00 | 0.00 | 46 | 985.6 |
| 20260510011045 | 7 | 337 | 11.3 | 22.5 | 0.00 | 0.00 | 0.00 | 46 | 985.6 |
| 20260510010545 | 7 | 346 | 12.9 | 24.1 | 0.00 | 0.00 | 0.00 | 46 | 985.6 |
| 20260510010047 | 7 | 342 | 14.5 | 24.1 | 0.00 | 0.00 | 0.00 | 46 | 985.5 |
| 20260510005545 | 7 | 311 | 12.9 | 20.9 | 0.00 | 0.00 | 0.00 | 46 | 985.5 |
| 20260510005043 | 7 | 355 | 12.9 | 20.9 | 0.00 | 0.00 | 0.00 | 46 | 985.5 |
| 20260510004544 | 7 | 350 | 9.7 | 19.3 | 0.00 | 0.00 | 0.00 | 46 | 985.5 |
| 20260510004044 | 7 | 332 | 12.9 | 20.9 | 0.00 | 0.00 | 0.00 | 46 | 985.4 |
| 20260510003543 | 7 | 360 | 11.3 | 22.5 | 0.00 | 0.00 | 0.00 | 47 | 985.4 |
| 20260510003057 | 7 | 342 | 12.9 | 22.5 | 0.00 | 0.00 | 0.00 | 46 | 985.4 |
| 20260510002543 | 7 | 10 | 12.9 | 24.1 | 0.00 | 0.00 | 0.00 | 46 | 985.4 |
| 20260510002041 | 7 | 343 | 14.5 | 24.1 | 0.00 | 0.00 | 0.00 | 46 | 985.3 |
| 20260510001541 | 7 | 328 | 11.3 | 24.1 | 0.00 | 0.00 | 0.00 | 45 | 985.3 |
| 20260510001041 | 7 | 328 | 11.3 | 24.1 | 0.00 | 0.00 | 0.00 | 45 | 985.3 |
| 20260510000541 | 7 | 323 | 14.5 | 24.1 | 0.00 | 0.00 | 0.00 | 45 | 985.3 |
| 20260510000041 | 7 | 360 | 12.9 | 24.1 | 0.00 | 0.00 | 0.00 | 44 | 985.2 |
| 20260509235539 | 7 | 342 | 12.9 | 22.5 | 0.00 | 0.00 | 0.00 | 44 | 985.1 |
| 20260509235039 | 7 | 5 | 14.5 | 24.1 | 0.00 | 0.00 | 0.00 | 44 | 985.1 |
| 20260509234540 | 7 | 348 | 9.7 | 24.1 | 0.00 | 0.00 | 0.00 | 44 | 985.1 |
| 20260509234040 | 7 | 340 | 14.5 | 24.1 | 0.00 | 0.00 | 0.00 | 43 | 985.0 |
| 20260509233539 | 7 | 346 | 12.9 | 27.4 | 0.00 | 0.00 | 0.00 | 43 | 985.0 |
| 20260509233038 | 8 | 30 | 16.1 | 27.4 | 0.00 | 0.00 | 0.00 | 42 | 985.0 |
| 20260509232538 | 7 | 348 | 14.5 | 25.7 | 0.00 | 0.00 | 0.00 | 42 | 984.9 |
| 20260509232037 | 7 | 334 | 17.7 | 25.7 | 0.00 | 0.00 | 0.00 | 42 | 984.9 |
| 20260509231537 | 8 | 315 | 16.1 | 25.7 | 0.00 | 0.00 | 0.00 | 42 | 984.8 |
| 20260509231036 | 8 | 306 | 14.5 | 24.1 | 0.00 | 0.00 | 0.00 | 42 | 984.8 |
| 20260509230536 | 8 | 345 | 16.1 | 24.1 | 0.00 | 0.00 | 0.00 | 41 | 984.7 |
| 20260509230036 | 8 | 329 | 14.5 | 24.1 | 0.00 | 0.00 | 0.00 | 41 | 984.6 |
| 20260509225535 | 8 | 355 | 12.9 | 24.1 | 0.00 | 0.00 | 0.00 | 41 | 984.6 |
| 20260509225034 | 8 | 340 | 12.9 | 22.5 | 0.00 | 0.00 | 0.00 | 40 | 984.5 |
| 20260509224534 | 8 | 34 | 8.0 | 22.5 | 0.00 | 0.00 | 0.00 | 41 | 984.6 |
| 20260509224034 | 8 | 349 | 8.0 | 22.5 | 0.00 | 0.00 | 0.00 | 40 | 984.4 |
| 20260509223534 | 8 | 41 | 8.0 | 24.1 | 0.00 | 0.00 | 0.00 | 41 | 984.4 |
| 20260509223034 | 8 | 337 | 16.1 | 24.1 | 0.00 | 0.00 | 0.00 | 39 | 984.5 |
| 20260509222533 | 8 | 355 | 11.3 | 22.5 | 0.00 | 0.00 | 0.00 | 40 | 984.5 |
| 20260509222035 | 8 | 329 | 14.5 | 25.7 | 0.00 | 0.00 | 0.00 | 39 | 984.4 |
| 20260509221533 | 8 | 355 | 11.3 | 25.7 | 0.00 | 0.00 | 0.00 | 39 | 984.5 |
| 20260509221033 | 8 | 333 | 14.5 | 22.5 | 0.00 | 0.00 | 0.00 | 39 | 984.5 |
| 20260509220533 | 8 | 331 | 11.3 | 25.7 | 0.00 | 0.00 | 0.00 | 39 | 984.4 |
| 20260509220040 | 8 | 328 | 9.7 | 25.7 | 0.00 | 0.00 | 0.00 | 39 | 984.3 |
| 20260509215532 | 8 | 5 | 12.9 | 20.9 | 0.00 | 0.00 | 0.00 | 39 | 984.4 |
| 20260509215031 | 8 | 355 | 9.7 | 20.9 | 0.00 | 0.00 | 0.00 | 39 | 984.3 |
| 20260509214532 | 8 | 332 | 12.9 | 20.9 | 0.00 | 0.00 | 0.00 | 39 | 984.3 |
| 20260509214032 | 8 | 326 | 12.9 | 27.4 | 0.00 | 0.00 | 0.00 | 39 | 984.1 |
| 20260509213530 | 8 | 323 | 12.9 | 29.0 | 0.00 | 0.00 | 0.00 | 38 | 984.2 |
| 20260509213030 | 8 | 341 | 12.9 | 22.5 | 0.00 | 0.00 | 0.00 | 38 | 984.2 |
| 20260509212530 | 8 | 342 | 12.9 | 25.7 | 0.00 | 0.00 | 0.00 | 39 | 984.0 |
| 20260509212030 | 8 | 342 | 16.1 | 27.4 | 0.00 | 0.00 | 0.00 | 38 | 984.1 |
| 20260509211529 | 8 | 343 | 17.7 | 27.4 | 0.00 | 0.00 | 0.00 | 37 | 984.2 |
| 20260509211029 | 8 | 325 | 16.1 | 27.4 | 0.00 | 0.00 | 0.00 | 38 | 984.1 |
| 20260509210530 | 8 | 344 | 16.1 | 27.4 | 0.00 | 0.00 | 0.00 | 38 | 984.0 |
| 20260509210029 | 9 | 312 | 17.7 | 25.7 | 0.00 | 0.00 | 0.00 | 36 | 984.2 |
| 20260509205528 | 9 | 315 | 16.1 | 29.0 | 0.00 | 0.00 | 0.00 | 38 | 984.0 |
| 20260509205027 | 9 | 342 | 17.7 | 29.0 | 0.00 | 0.00 | 0.00 | 37 | 983.9 |
| 20260509204527 | 9 | 313 | 14.5 | 29.0 | 0.00 | 0.00 | 0.00 | 38 | 983.9 |
| 20260509204028 | 9 | 360 | 19.3 | 29.0 | 0.00 | 0.00 | 0.00 | 36 | 983.9 |
| 20260509203530 | 9 | 316 | 16.1 | 27.4 | 0.00 | 0.00 | 0.00 | 36 | 984.0 |
| 20260509203035 | 9 | 325 | 17.7 | 29.0 | 0.00 | 0.00 | 0.00 | 37 | 984.0 |
| 20260509202529 | 9 | 334 | 19.3 | 29.0 | 0.00 | 0.00 | 0.00 | 38 | 983.9 |
| 20260509202027 | 8 | 332 | 19.3 | 38.6 | 0.00 | 0.00 | 0.00 | 37 | 983.9 |
| 20260509201527 | 9 | 345 | 22.5 | 38.6 | 0.00 | 0.00 | 0.00 | 36 | 983.9 |
| 20260509201026 | 9 | 319 | 17.7 | 29.0 | 0.00 | 0.00 | 0.00 | 36 | 983.9 |
| 20260509200527 | 9 | 292 | 16.1 | 29.0 | 0.00 | 0.00 | 0.00 | 36 | 983.9 |
| 20260509200036 | 9 | 338 | 19.3 | 32.2 | 0.00 | 0.00 | 0.00 | 36 | 983.9 |
| 20260509195526 | 10 | 313 | 20.9 | 32.2 | 0.00 | 0.00 | 0.00 | 37 | 984.1 |
| 20260509195026 | 9 | 325 | 14.5 | 29.0 | 0.00 | 0.00 | 0.00 | 36 | 983.9 |
| 20260509194541 | 10 | 309 | 19.3 | 35.4 | 0.00 | 0.00 | 0.00 | 35 | 984.0 |
| 20260509194029 | 10 | 346 | 24.1 | 35.4 | 0.00 | 0.00 | 0.00 | 35 | 983.9 |
| 20260509193525 | 10 | 346 | 17.7 | 37.0 | 0.00 | 0.00 | 0.00 | 38 | 983.9 |
| 20260509193025 | 10 | 355 | 17.7 | 29.0 | 0.00 | 0.00 | 0.00 | 37 | 983.8 |
| 20260509192524 | 10 | 347 | 16.1 | 27.4 | 0.00 | 0.00 | 0.00 | 38 | 983.9 |
| 20260509192024 | 10 | 31 | 16.1 | 32.2 | 0.00 | 0.00 | 0.00 | 39 | 983.9 |
| 20260509191524 | 10 | 336 | 19.3 | 32.2 | 0.00 | 0.00 | 0.00 | 38 | 983.8 |
| 20260509191026 | 10 | 355 | 17.7 | 30.6 | 0.00 | 0.00 | 0.00 | 38 | 983.9 |
| 20260509190523 | 10 | 360 | 14.5 | 32.2 | 0.00 | 0.00 | 0.00 | 39 | 983.8 |
| 20260509190023 | 10 | 346 | 17.7 | 32.2 | 0.00 | 0.00 | 0.00 | 38 | 983.8 |
| 20260509185522 | 10 | 346 | 19.3 | 33.8 | 0.00 | 0.00 | 0.00 | 38 | 983.7 |
| 20260509185023 | 10 | 355 | 17.7 | 33.8 | 0.00 | 0.00 | 0.00 | 39 | 983.8 |
| 20260509184622 | 10 | 326 | 20.9 | 32.2 | 0.00 | 0.00 | 0.00 | 38 | 983.8 |
| 20260509184026 | 10 | 293 | 17.7 | 32.2 | 0.00 | 0.00 | 0.00 | 38 | 983.8 |
| 20260509183521 | 9 | 338 | 17.7 | 33.8 | 0.00 | 0.00 | 0.00 | 37 | 983.7 |
| 20260509183021 | 10 | 342 | 19.3 | 33.8 | 0.00 | 0.00 | 0.00 | 38 | 983.8 |
| 20260509182524 | 9 | 311 | 19.3 | 30.6 | 0.00 | 0.00 | 0.00 | 39 | 983.6 |
| 20260509182023 | 10 | 335 | 20.9 | 30.6 | 0.00 | 0.00 | 0.00 | 38 | 983.8 |
| 20260509181520 | 10 | 325 | 19.3 | 35.4 | 0.00 | 0.00 | 0.00 | 37 | 983.7 |
| 20260509181020 | 9 | 355 | 20.9 | 35.4 | 0.00 | 0.00 | 0.00 | 38 | 983.7 |
| 20260509180523 | 9 | 288 | 22.5 | 33.8 | 0.00 | 0.00 | 0.00 | 38 | 983.8 |
| 20260509180019 | 9 | 296 | 22.5 | 37.0 | 0.00 | 0.00 | 0.00 | 37 | 983.7 |
| 20260509175518 | 9 | 328 | 22.5 | 37.0 | 0.00 | 0.00 | 0.00 | 37 | 983.7 |
| 20260509175018 | 9 | 307 | 16.1 | 33.8 | 0.00 | 0.00 | 0.00 | 38 | 983.6 |
| 20260509174536 | 9 | 336 | 22.5 | 35.4 | 0.00 | 0.00 | 0.00 | 37 | 983.6 |
| 20260509174021 | 8 | 306 | 17.7 | 35.4 | 0.00 | 0.00 | 0.00 | 38 | 983.7 |
| 20260509173516 | 8 | 316 | 19.3 | 33.8 | 0.00 | 0.00 | 0.00 | 38 | 983.7 |
| 20260509173016 | 9 | 331 | 24.1 | 33.8 | 0.00 | 0.00 | 0.00 | 37 | 983.7 |
| 20260509172519 | 8 | 309 | 19.3 | 32.2 | 0.00 | 0.00 | 0.00 | 40 | 983.7 |
| 20260509172016 | 8 | 290 | 19.3 | 32.2 | 0.00 | 0.00 | 0.00 | 38 | 983.7 |
| 20260509171513 | 8 | 273 | 20.9 | 38.6 | 0.00 | 0.00 | 0.00 | 37 | 983.7 |
| 20260509171011 | 8 | 278 | 22.5 | 38.6 | 0.00 | 0.00 | 0.00 | 37 | 983.6 |
| 20260509170511 | 8 | 345 | 20.9 | 33.8 | 0.00 | 0.00 | 0.00 | 38 | 983.6 |
| 20260509170010 | 8 | 318 | 20.9 | 32.2 | 0.00 | 0.00 | 0.00 | 37 | 983.5 |
| 20260509165508 | 8 | 330 | 19.3 | 29.0 | 0.00 | 0.00 | 0.00 | 39 | 983.5 |
| 20260509165007 | 8 | 321 | 20.9 | 33.8 | 0.00 | 0.00 | 0.00 | 40 | 983.6 |
| 20260509164506 | 8 | 288 | 19.3 | 35.4 | 0.00 | 0.00 | 0.00 | 40 | 983.6 |
| 20260509164005 | 8 | 298 | 19.3 | 38.6 | 0.00 | 0.00 | 0.00 | 39 | 983.5 |
| 20260509163503 | 8 | 296 | 17.7 | 32.2 | 0.00 | 0.00 | 0.00 | 40 | 983.4 |
| 20260509163005 | 8 | 326 | 20.9 | 32.2 | 0.00 | 0.00 | 0.00 | 40 | 983.5 |
| 20260509162504 | 7 | 302 | 19.3 | 32.2 | 0.00 | 0.00 | 0.00 | 39 | 983.5 |
| 20260509162100 | 7 | 292 | 19.3 | 35.4 | 0.00 | 0.00 | 0.00 | 41 | 983.4 |
| 20260509161603 | 7 | 293 | 20.9 | 35.4 | 0.00 | 0.00 | 0.00 | 40 | 983.5 |
| 20260509161057 | 7 | 305 | 19.3 | 30.6 | 0.00 | 0.00 | 0.00 | 40 | 983.6 |
| 20260509160557 | 7 | 336 | 22.5 | 30.6 | 0.00 | 0.00 | 0.00 | 40 | 983.4 |
| 20260509160055 | 7 | 321 | 17.7 | 32.2 | 0.00 | 0.00 | 0.00 | 41 | 983.4 |
| 20260509155552 | 7 | 286 | 20.9 | 32.2 | 0.00 | 0.00 | 0.00 | 42 | 983.3 |
| 20260509155051 | 7 | 294 | 19.3 | 33.8 | 0.00 | 0.00 | 0.00 | 42 | 983.4 |
| 20260509154550 | 7 | 262 | 19.3 | 32.2 | 0.00 | 0.00 | 0.00 | 43 | 983.3 |
| 20260509154050 | 7 | 309 | 20.9 | 33.8 | 0.00 | 0.00 | 0.00 | 42 | 983.3 |
| 20260509153550 | 6 | 303 | 19.3 | 33.8 | 0.00 | 0.00 | 0.00 | 43 | 983.2 |
| 20260509153053 | 6 | 311 | 17.7 | 30.6 | 0.00 | 0.00 | 0.00 | 43 | 983.2 |
| 20260509152546 | 6 | 315 | 17.7 | 32.2 | 0.00 | 0.00 | 0.00 | 44 | 983.2 |
| 20260509152045 | 6 | 346 | 20.9 | 32.2 | 0.00 | 0.00 | 0.00 | 42 | 983.4 |
| 20260509151545 | 6 | 319 | 19.3 | 30.6 | 0.00 | 0.00 | 0.00 | 43 | 983.4 |
| 20260509151043 | 6 | 333 | 19.3 | 32.2 | 0.00 | 0.00 | 0.00 | 43 | 983.3 |
| 20260509150546 | 6 | 275 | 19.3 | 29.0 | 0.00 | 0.00 | 0.00 | 42 | 983.3 |
| 20260509150044 | 6 | 325 | 16.1 | 29.0 | 0.00 | 0.00 | 0.00 | 44 | 983.2 |
| 20260509145541 | 6 | 281 | 17.7 | 29.0 | 0.00 | 0.00 | 0.00 | 43 | 983.2 |